TimePST,TemperatureF,Dew PointF,Humidity,Sea Level PressureIn,VisibilityMPH,Wind Direction,Wind SpeedMPH,Gust SpeedMPH,PrecipitationIn,Events,Conditions,WindDirDegrees,DateUTC
12:17 AM,51.8,46.4,82,30.00,10.0,South,13.8,25.3,0.00,,Overcast,180,2013-12-07 08:17:00
12:54 AM,52.0,46.0,80,30.02,10.0,South,13.8,24.2,0.00,,Overcast,180,2013-12-07 08:54:00
1:42 AM,51.8,48.2,88,29.95,10.0,SSW,13.8,23.0,0.07,,Overcast,200,2013-12-07 09:42:00
1:54 AM,52.0,48.0,86,29.99,7.0,South,17.3,26.5,0.07,Rain,Light Rain,190,2013-12-07 09:54:00
2:23 AM,51.8,48.2,88,29.97,5.0,West,17.3,23.0,0.03,Rain,Light Rain,270,2013-12-07 10:23:00
2:31 AM,48.2,44.6,87,29.97,3.0,WSW,16.1,25.3,0.09,Rain,Heavy Rain,240,2013-12-07 10:31:00
2:39 AM,48.2,44.6,87,29.97,4.0,SW,15.0,-,0.12,Rain,Heavy Rain,230,2013-12-07 10:39:00
2:50 AM,48.2,46.4,93,29.98,5.0,West,11.5,-,0.16,Rain,Heavy Rain,260,2013-12-07 10:50:00
2:54 AM,48.9,46.9,93,30.02,5.0,West,11.5,-,0.16,Rain,Rain,260,2013-12-07 10:54:00
3:13 AM,48.2,46.4,93,29.99,10.0,WSW,9.2,-,0.01,Rain,Light Rain,250,2013-12-07 11:13:00
3:20 AM,50.0,46.4,87,29.99,10.0,West,11.5,-,0.01,,Overcast,270,2013-12-07 11:20:00
3:54 AM,50.0,41.0,71,30.04,10.0,WNW,10.4,-,0.01,,Overcast,290,2013-12-07 11:54:00
4:54 AM,50.0,39.9,68,30.05,10.0,West,10.4,-,0.00,,Overcast,280,2013-12-07 12:54:00
5:54 AM,48.9,37.0,64,30.07,10.0,WNW,6.9,-,N/A,,Scattered Clouds,290,2013-12-07 13:54:00
6:54 AM,48.0,34.0,58,30.09,10.0,WNW,6.9,-,N/A,,Clear,300,2013-12-07 14:54:00
7:54 AM,48.0,33.1,56,30.12,10.0,WNW,6.9,-,N/A,,Mostly Cloudy,290,2013-12-07 15:54:00
8:54 AM,48.9,35.1,59,30.15,10.0,WNW,9.2,-,N/A,,Mostly Cloudy,300,2013-12-07 16:54:00
9:54 AM,48.9,34.0,56,30.19,10.0,NW,6.9,-,0.00,,Mostly Cloudy,320,2013-12-07 17:54:00
10:54 AM,48.0,36.0,63,30.19,10.0,West,6.9,-,0.00,,Overcast,260,2013-12-07 18:54:00
11:54 AM,48.9,34.0,56,30.17,10.0,West,8.1,-,N/A,,Partly Cloudy,280,2013-12-07 19:54:00
12:54 PM,50.0,30.0,46,30.17,10.0,West,13.8,23.0,N/A,,Clear,280,2013-12-07 20:54:00
1:54 PM,48.9,28.9,46,30.17,10.0,West,13.8,20.7,N/A,,Partly Cloudy,260,2013-12-07 21:54:00
2:54 PM,48.9,30.0,48,30.18,10.0,West,12.7,20.7,N/A,,Clear,270,2013-12-07 22:54:00
3:54 PM,48.0,28.9,48,30.22,10.0,West,11.5,23.0,N/A,,Partly Cloudy,270,2013-12-07 23:54:00
4:54 PM,46.9,30.9,54,30.22,10.0,WNW,6.9,19.6,N/A,,Mostly Cloudy,290,2013-12-08 00:54:00
5:54 PM,46.9,32.0,56,30.24,10.0,West,9.2,18.4,N/A,,Overcast,280,2013-12-08 01:54:00
6:54 PM,46.0,30.0,54,30.24,10.0,WNW,9.2,-,N/A,,Overcast,290,2013-12-08 02:54:00
7:54 PM,46.0,30.0,54,30.25,10.0,NW,9.2,-,N/A,,Overcast,310,2013-12-08 03:54:00
8:54 PM,45.0,28.0,52,30.26,10.0,WNW,5.8,-,N/A,,Clear,300,2013-12-08 04:54:00
9:54 PM,44.1,28.9,55,30.26,10.0,NW,5.8,-,N/A,,Mostly Cloudy,310,2013-12-08 05:54:00
10:54 PM,43.0,28.9,58,30.30,10.0,East,3.5,-,N/A,,Overcast,80,2013-12-08 06:54:00
11:54 PM,41.0,28.9,62,30.28,10.0,East,5.8,-,N/A,,Overcast,80,2013-12-08 07:54:00